Regional Weather Roundup
Issued by NWS

Home | Current Version | Previous Version | Text Only | Print | Product List | Glossary On
Versions: 1 2 3 4 5 6 7 8 9 10 11 12 13 14 15 16 17 18 19 20 21 22 23 24 25 26 27 28 29 30 31 32 33 34 35 36 37 38 39 40 41 42 43 44 45 46 47 48 49 50
000
ASUS43 KDTX 160401
RWRMI
MICHIGAN HOURLY REGIONAL WEATHER ROUNDUP
NATIONAL WEATHER SERVICE DETROIT/PONTIAC MI
1100 PM EST FRI DEC 15 2017

NOTE: "FAIR" INDICATES FEW OR NO CLOUDS BELOW 12,000 FEET WITH NO
SIGNIFICANT WEATHER AND/OR OBSTRUCTION TO VISIBILITY.

MIZ047>049-052>055-059>063-066>070-074>076-081>083-160500-
SOUTHEAST LOWER MICHIGAN

CITY           SKY/WX    TMP DP  RH WIND       PRES   REMARKS
ALMA           CLOUDY    19  17  90 S8        29.87R WCI   9
ANN ARBOR      LGT SNOW  25  20  81 S6        29.90S WCI  18
BAD AXE        CLEAR     16  11  78 W7        29.85S WCI   7
CARO           CLOUDY    21  16  82 SW5       29.86F WCI  15
DETROIT CITY   CLOUDY    26  18  71 SW9       29.92S WCI  17
DETROIT        LGT SNOW  29  20  69 SW12      29.92S WCI  19
FLINT          CLOUDY    22  15  75 SW7       29.88F WCI  13
GROSSE ILE     FLURRIES  27  20  76 SW7       29.91F WCI  19
HILLSDALE      CLOUDY    28  21  74 SW12      29.89R WCI  18
HOWELL         LGT SNOW  24  19  84 CALM      29.88S

CITY           SKY/WX    TMP DP  RH WIND       PRES   REMARKS
JACKSON        LGT SNOW  28  22  78 SW14      29.88S WCI  17
LAMBERTVILLE   CLOUDY    29  20  66 SW12G18   29.93S WCI  20
LANSING        FLURRIES  24  19  81 MISG      29.88F
LAPEER         CLOUDY    21  18  86 SW5       29.87F WCI  15
MASON          FLURRIES  24  18  77 CALM      29.88S
MONROE         CLOUDY    27  19  72 SW8       29.92S WCI  19
MT. CLEMENS    CLOUDY    26  18  73 SW9       29.89R WCI  16
PONTIAC        FLURRIES  24  17  74 W8        29.87S WCI  15
PORT HOPE        N/A     19  11  70 SW8       29.82R WCI   9
PORT HURON     CLOUDY    23  18  80 SW5       29.90R WCI  17
TRI CITIES     CLOUDY    19  17  92 SW6       29.87F WCI  11
MIDLAND        MOCLDY    20  16  85 SW3       29.86S
TROY           CLOUDY    26  19  72 SW8       29.91F WCI  18
SAGINAW HB     CLOUDY    21  18  86 SW3       29.86F
$$
MIZ043>046-050>051-056>058-064>065-071>073-077>080-160500-
SOUTHWEST LOWER MICHIGAN

CITY           SKY/WX    TMP DP  RH WIND       PRES   REMARKS
BATTLE CREEK   LGT SNOW  28  25  88 SW15      29.88S FOG     WCI  16
BENTON HARBOR  LGT SNOW  34  27  75 W15       29.90F WCI  24
BIG RAPIDS     CLOUDY    15  13  91 CALM      29.83S
COLDWATER      FLURRIES  29  23  76 SW12      29.91R WCI  20
HOLLAND        LGT SNOW  33  27  78 W17G24    29.87F WCI  22
GRAND RAPIDS   LGT SNOW  24  21  88 CALM      29.87S FOG
IONIA          LGT SNOW  25  20  81 SW3       29.87S
KALAMAZOO      LGT SNOW  29  26  89 SW12      29.89S FOG     WCI  19
LUDINGTON      CLOUDY    25  16  69 NW6       29.84S WCI  18
MARSHALL       LGT SNOW  28  26  94 SW10      29.88S WCI  18
MOUNT PLEASANT CLOUDY    17  14  90 CALM      29.84S
MUSKEGON       FLURRIES  32  23  69 NW7       29.86F WCI  26
SOUTH HAVEN    LGT SNOW  34  30  86 W12G18    29.89F WCI  25
$$
MIZ016>042-160500-
NORTHERN LOWER MICHIGAN

CITY           SKY/WX    TMP DP  RH WIND       PRES   REMARKS
ALPENA         CLOUDY    21  18  88 W6        29.78S WCI  13
BEAVER ISLAND  PTCLDY    20  10  65 NW12G22   29.80R WCI   8
BELLAIRE       CLOUDY    24  17  73 W5        29.81R WCI  18
CADILLAC       CLOUDY    13  10  87 S5        29.77S WCI   6
CHARLEVOIX     CLOUDY    24  15  67 W12G20    29.82R WCI  13
FRANKFORT      CLOUDY    24  14  65 W8        29.83S WCI  15
GAYLORD        LGT SNOW  19  15  84 W6        29.74S VSB 3/4 WCI  11
GRAYLING       CLOUDY    18  12  77 SW8       29.78R WCI   7
HARBOR SPRINGS CLOUDY    21  11  63 NW9       29.77R WCI  11
HOUGHTON LAKE  CLOUDY    17  11  77 SW9       29.79S WCI   6
MANISTEE       CLOUDY    23  14  68 W10       29.84S WCI  12
OSCODA         CLOUDY    19  13  76 W13       29.81S WCI   6
PELLSTON       CLOUDY    20  12  71 NW15      29.78S WCI   6
ROGERS CITY    CLOUDY    20  16  83 W5        29.78R WCI  14
TRAVERSE CITY  CLOUDY    22  14  71 SW3       29.81S
$$
MIZ007>008-015-160500-
EASTERN UPPER MICHIGAN

CITY           SKY/WX    TMP DP  RH WIND       PRES   REMARKS
KINROSS        LGT SNOW  16  13  88 W7        29.76R FOG     WCI   6
MACKINAC ISLAN CLOUDY    20  13  74 NW13      29.77S WCI   7
NEWBERRY       CLOUDY    14  13  95 W5        29.78R WCI   6
S. S. MARIE    CLOUDY    15   7  70 VRB6      29.76R WCI   6
MUNISING         N/A     16  13  88 W9        29.80S WCI   4
$$
MIZ004>006-011>014-085-160500-
CENTRAL UPPER MICHIGAN

CITY           SKY/WX    TMP DP  RH WIND       PRES   REMARKS
MANISTIQUE     PTCLDY    10   2  72 NW9       29.81R WCI  -3
ESCANABA       MOCLDY     9   5  84 NW5       29.83S WCI   1
MENOMINEE      CLOUDY    12   6  77 CALM      29.85S
$$
MIZ001>003-009>011-084-160500-
WESTERN UPPER MICHIGAN

CITY           SKY/WX    TMP DP  RH WIND       PRES   REMARKS
IRON MOUNTAIN  CLOUDY     9   4  80 CALM      29.79R
HOUGHTON       LGT SNOW  11   6  81 CALM      29.77S
COPPER HARBOR    N/A     19  10  68 N14       29.80R WCI   6
IRONWOOD       CLOUDY     6   3  87 CALM      29.78R
$$

ABBREVIATIONS USED IN REMARKS
   TC - TEMPERATURE IN CELSIUS
  WCI - WIND CHILL INDEX
   HX - HEAT INDEX
  VSB - VISIBILITY





USA.gov is the U.S. government's official web portal to all federal, state and local government web resources and services.